When you browse on this site, cookies collect data to enhance your experience and personalize the content and advertising you see.
Visit our Privacy Policy to learn more. By continuing to use the site, you agree to this use of cookies and data.
  • Em Portugal
  • Lista de países
  • Para 7 dias
  • Temperatura da água
  • Mapas de satélite
  • Mapa do tempo
  • Widgets de tempo
  • user-avatar
    Iniciar Sessão

    Previsão horária em Zandzhan

    Hoje, 16 Julho, Terça-feira

    Tempo Temperatura Precipitação Vento Pressão Humidade
    00:00 +21°C° 0 mm 1 m/s 613 mmHg 29%
    01:00 +19°C° 0 mm 0 m/s 612 mmHg 28%
    02:00 +18°C° 0 mm 0 m/s 612 mmHg 28%
    03:00 +18°C° 0 mm 0 m/s 612 mmHg 29%
    04:00 +19°C° 0 mm 0 m/s 612 mmHg 28%
    05:00 +21°C° 0 mm 0 m/s 613 mmHg 26%
    06:00 +22°C° 0 mm 0 m/s 614 mmHg 25%
    07:00 +24°C° 0 mm 0 m/s 615 mmHg 20%
    08:00 +28°C° 0 mm 1 m/s 615 mmHg 16%
    09:00 +31°C° 0 mm 1 m/s 616 mmHg 11%
    10:00 +33°C° 0 mm 3 m/s 616 mmHg 10%
    11:00 +35°C° 0 mm 4 m/s 617 mmHg 9%
    12:00 +37°C° 0 mm 5 m/s 617 mmHg 9%
    13:00 +39°C° 0 mm 6 m/s 617 mmHg 8%
    14:00 +40°C° 0 mm 6 m/s 616 mmHg 8%
    15:00 +40°C° 0 mm 6 m/s 616 mmHg 8%
    16:00 +39°C° 0 mm 5 m/s 616 mmHg 10%
    17:00 +37°C° 0 mm 4 m/s 616 mmHg 12%
    18:00 +36°C° 0 mm 4 m/s 616 mmHg 13%
    19:00 +33°C° 0 mm 3 m/s 615 mmHg 17%
    20:00 +29°C° 0 mm 2 m/s 615 mmHg 21%
    21:00 +26°C° 0 mm 1 m/s 614 mmHg 24%
    22:00 +25°C° 0 mm 1 m/s 614 mmHg 27%
    23:00 +24°C° 0 mm 1 m/s 614 mmHg 31%

    Amanhã, 17 Julho, Quarta-feira

    Tempo Temperatura Precipitação Vento Pressão Humidade
    00:00 +23°C° 0 mm 1 m/s 613 mmHg 34%
    01:00 +23°C° 0 mm 1 m/s 613 mmHg 37%
    02:00 +22°C° 0 mm 1 m/s 613 mmHg 39%
    03:00 +22°C° 0 mm 1 m/s 612 mmHg 42%
    04:00 +22°C° 0 mm 1 m/s 613 mmHg 43%
    05:00 +23°C° 0 mm 2 m/s 614 mmHg 45%
    06:00 +23°C° 0 mm 2 m/s 614 mmHg 46%
    07:00 +26°C° 0 mm 2 m/s 615 mmHg 38%
    08:00 +29°C° 0 mm 3 m/s 616 mmHg 29%
    09:00 +33°C° 0 mm 4 m/s 617 mmHg 20%
    10:00 +35°C° 0 mm 5 m/s 617 mmHg 17%
    11:00 +39°C° 0 mm 7 m/s 617 mmHg 13%
    12:00 +42°C° 0 mm 9 m/s 618 mmHg 10%
    13:00 +42°C° 0 mm 9 m/s 618 mmHg 10%
    14:00 +42°C° 0 mm 9 m/s 617 mmHg 9%
    15:00 +42°C° 0 mm 10 m/s 617 mmHg 9%
    16:00 +40°C° 0 mm 8 m/s 617 mmHg 10%
    17:00 +39°C° 0 mm 7 m/s 617 mmHg 11%
    18:00 +38°C° 0 mm 6 m/s 617 mmHg 12%
    19:00 +33°C° 0 mm 4 m/s 616 mmHg 17%
    20:00 +29°C° 0 mm 3 m/s 616 mmHg 21%
    21:00 +26°C° 0 mm 2 m/s 615 mmHg 25%
    22:00 +25°C° 0 mm 2 m/s 615 mmHg 28%
    23:00 +24°C° 0 mm 1 m/s 614 mmHg 30%

    Depois de amanhã, 18 Julho, Quinta-feira

    Tempo Temperatura Precipitação Vento Pressão Humidade
    00:00 +23°C° 0 mm 1 m/s 614 mmHg 33%
    01:00 +23°C° 0 mm 1 m/s 614 mmHg 35%
    02:00 +22°C° 0 mm 1 m/s 614 mmHg 38%
    03:00 +21°C° 0 mm 2 m/s 613 mmHg 40%
    04:00 +23°C° 0 mm 1 m/s 614 mmHg 39%
    05:00 +24°C° 0 mm 1 m/s 614 mmHg 37%
    06:00 +24°C° 0 mm 1 m/s 615 mmHg 35%
    07:00 +27°C° 0 mm 3 m/s 616 mmHg 28%
    08:00 +30°C° 0 mm 4 m/s 617 mmHg 21%
    09:00 +34°C° 0 mm 6 m/s 618 mmHg 13%
    10:00 +36°C° 0 mm 6 m/s 618 mmHg 12%
    11:00 +39°C° 0 mm 6 m/s 618 mmHg 10%
    12:00 +41°C° 0 mm 7 m/s 619 mmHg 8%
    13:00 +41°C° 0 mm 7 m/s 618 mmHg 8%
    14:00 +43°C° 0 mm 7 m/s 618 mmHg 7%
    15:00 +43°C° 0 mm 7 m/s 618 mmHg 7%
    16:00 +41°C° 0 mm 6 m/s 617 mmHg 8%
    17:00 +40°C° 0 mm 5 m/s 617 mmHg 9%
    18:00 +38°C° 0 mm 4 m/s 617 mmHg 10%
    19:00 +35°C° 0 mm 3 m/s 617 mmHg 13%
    20:00 +31°C° 0 mm 3 m/s 616 mmHg 16%
    21:00 +28°C° 0 mm 2 m/s 616 mmHg 18%
    22:00 +27°C° 0 mm 2 m/s 616 mmHg 20%
    23:00 +26°C° 0 mm 2 m/s 615 mmHg 21%

    19 Julho, Sexta-feira

    Tempo Temperatura Precipitação Vento Pressão Humidade
    00:00 +24°C° 0 mm 2 m/s 615 mmHg 22%
    01:00 +23°C° 0 mm 1 m/s 614 mmHg 24%
    02:00 +22°C° 0 mm 1 m/s 614 mmHg 26%
    03:00 +21°C° 0 mm 1 m/s 614 mmHg 27%
    04:00 +23°C° 0 mm 1 m/s 614 mmHg 25%
    05:00 +24°C° 0 mm 1 m/s 615 mmHg 23%
    06:00 +26°C° 0 mm 1 m/s 616 mmHg 21%
    07:00 +29°C° 0 mm 3 m/s 617 mmHg 17%
    08:00 +33°C° 0 mm 5 m/s 618 mmHg 12%
    09:00 +36°C° 0 mm 7 m/s 619 mmHg 8%
    10:00 +38°C° 0 mm 7 m/s 619 mmHg 7%
    11:00 +40°C° 0 mm 8 m/s 619 mmHg 7%
    12:00 +41°C° 0 mm 8 m/s 620 mmHg 6%
    13:00 +43°C° 0 mm 8 m/s 619 mmHg 6%
    14:00 +43°C° 0 mm 7 m/s 619 mmHg 6%
    15:00 +43°C° 0 mm 7 m/s 619 mmHg 6%
    16:00 +40°C° 0 mm 7 m/s 618 mmHg 9%
    17:00 +38°C° 0 mm 7 m/s 618 mmHg 12%
    18:00 +35°C° 0 mm 7 m/s 617 mmHg 15%
    19:00 +32°C° 0 mm 6 m/s 617 mmHg 24%
    20:00 +27°C° 0 mm 5 m/s 616 mmHg 34%
    21:00 +24°C° 0 mm 3 m/s 616 mmHg 43%
    22:00 +22°C° 0 mm 3 m/s 616 mmHg 45%
    23:00 +21°C° 0 mm 2 m/s 616 mmHg 47%

    20 Julho, Sábado

    Tempo Temperatura Precipitação Vento Pressão Humidade
    00:00 +20°C° 0 mm 2 m/s 616 mmHg 49%
    01:00 +20°C° 0 mm 2 m/s 616 mmHg 51%
    02:00 +19°C° 0 mm 2 m/s 616 mmHg 53%
    03:00 +19°C° 0 mm 2 m/s 616 mmHg 54%
    04:00 +19°C° 0 mm 2 m/s 616 mmHg 52%
    05:00 +20°C° 0 mm 2 m/s 617 mmHg 49%
    06:00 +20°C° 0 mm 2 m/s 618 mmHg 46%
    07:00 +25°C° 0 mm 4 m/s 619 mmHg 36%
    08:00 +29°C° 0 mm 6 m/s 621 mmHg 25%
    09:00 +34°C° 0 mm 8 m/s 622 mmHg 15%
    10:00 +35°C° 0 mm 8 m/s 622 mmHg 13%
    11:00 +38°C° 0 mm 8 m/s 623 mmHg 12%
    12:00 +40°C° 0 mm 8 m/s 623 mmHg 11%
    13:00 +40°C° 0 mm 8 m/s 622 mmHg 11%
    14:00 +40°C° 0 mm 9 m/s 622 mmHg 10%
    15:00 +40°C° 0 mm 9 m/s 622 mmHg 10%
    16:00 +38°C° 0 mm 8 m/s 621 mmHg 13%
    17:00 +37°C° 0 mm 8 m/s 621 mmHg 17%
    18:00 +34°C° 0 mm 8 m/s 620 mmHg 21%
    19:00 +29°C° 0 mm 6 m/s 620 mmHg 30%
    20:00 +26°C° 0 mm 5 m/s 619 mmHg 39%
    21:00 +22°C° 0 mm 4 m/s 619 mmHg 48%
    22:00 +21°C° 0 mm 3 m/s 619 mmHg 48%
    23:00 +21°C° 0 mm 3 m/s 619 mmHg 49%

    21 Julho, Domingo

    Tempo Temperatura Precipitação Vento Pressão Humidade
    00:00 +20°C° 0 mm 2 m/s 618 mmHg 49%
    01:00 +19°C° 0 mm 2 m/s 618 mmHg 49%
    02:00 +19°C° 0 mm 2 m/s 618 mmHg 50%
    03:00 +18°C° 0 mm 2 m/s 618 mmHg 51%
    04:00 +20°C° 0 mm 2 m/s 619 mmHg 47%
    05:00 +21°C° 0 mm 2 m/s 619 mmHg 44%
    06:00 +23°C° 0 mm 2 m/s 620 mmHg 40%
    07:00 +26°C° 0 mm 3 m/s 621 mmHg 32%
    08:00 +30°C° 0 mm 4 m/s 622 mmHg 25%
    09:00 +35°C° 0 mm 5 m/s 623 mmHg 17%
    10:00 +36°C° 0 mm 5 m/s 623 mmHg 14%
    11:00 +39°C° 0 mm 5 m/s 623 mmHg 12%
    12:00 +40°C° 0 mm 5 m/s 623 mmHg 10%
    13:00 +40°C° 0 mm 5 m/s 623 mmHg 9%
    14:00 +41°C° 0 mm 5 m/s 623 mmHg 9%
    15:00 +41°C° 0 mm 5 m/s 622 mmHg 9%
    16:00 +40°C° 0 mm 6 m/s 622 mmHg 11%
    17:00 +38°C° 0 mm 6 m/s 621 mmHg 14%
    18:00 +36°C° 0 mm 7 m/s 621 mmHg 16%
    19:00 +34°C° 0 mm 6 m/s 620 mmHg 21%
    20:00 +30°C° 0 mm 5 m/s 620 mmHg 26%
    21:00 +28°C° 0 mm 3 m/s 619 mmHg 31%
    22:00 +26°C° 0 mm 3 m/s 619 mmHg 33%
    23:00 +25°C° 0 mm 2 m/s 618 mmHg 35%
    Mostrar mais